Regional Weather Roundup
Issued by NWS

Home | Current Version | Previous Version | Graphics & Text | Print | Product List | Glossary On
Versions: 1 2 3 4 5 6 7 8 9 10 11 12 13 14 15 16 17 18 19 20 21 22 23 24 25 26 27 28 29 30 31 32 33 34 35 36 37 38 39 40 41 42 43 44 45 46 47 48 49 50
000
ASUS45 KTFX 230010
RWRMT
MONTANA REGIONAL WEATHER ROUNDUP
NATIONAL WEATHER SERVICE GREAT FALLS MT
600 PM MDT FRI MAY 22 2015

NOTE: "FAIR" INDICATES FEW OR NO CLOUDS BELOW 12000 FEET WITH NO
SIGNIFICANT WEATHER AND/OR OBSTRUCTIONS TO VISIBILITY.

MTZ001>007-043-230100-
WEST OF THE DIVIDE

CITY           SKY/WX    TMP DP  RH WIND       PRES   REMARKS
KALISPELL      CLEAR     79  33  19 NE15      29.83S
MISSOULA       MOSUNNY   76  37  24 N13       29.82F
BUTTE          CLOUDY    62  37  39 N16       29.93F
MULLAN PASS    PTSUNNY   60  34  37 N5        29.96S
DEER LODGE       N/A     66  36  32 NE9G18    29.94S
EUREKA           N/A     77  30  18 NE9G16    29.83S
HAMILTON         N/A     72  36  26 E13       29.82S
LIBBY            N/A     81  28  15 E9        29.80S
RONAN            N/A     76  36  23 NW16      29.89S
$$

MTZ008-052>055-230100-
SOUTHWEST MONTANA

CITY           SKY/WX    TMP DP  RH WIND       PRES   REMARKS
BOZEMAN        CLOUDY    58  48  69 N15       29.91R
DILLON         CLOUDY    57  46  66 SE5       29.91R
W YELLOWSTONE  CLOUDY    55  39  54 NW10G18   29.94S
THREE FORKS      N/A     61  61 100 N15       29.91R
TWIN BRIDGES     N/A     65  39  38 N16       29.89F
$$

MTZ009-010-012-014-046-048-049-054-230100-
EAST SLOPES AND CENTRAL MONTANA

CITY           SKY/WX    TMP DP  RH WIND       PRES   REMARKS
CUT BANK       PTSUNNY   67  34  29 NE12      29.96S
GREAT FALLS    PTSUNNY   67  43  41 E12       29.92R
MALMSTROM AFB  PTSUNNY   66  45  47 E7        29.92R
HELENA         CLOUDY    66  44  45 SE10      29.89S
CONRAD           N/A     71  43  36 E10       29.98S
$$

MTZ011-013-016-021-045-047-050-051-230100-
NORTH CENTRAL MONTANA

CITY           SKY/WX    TMP DP  RH WIND       PRES   REMARKS
HAVRE          SUNNY     74  45  35 E14G22    29.92F
LEWISTOWN      CLOUDY    61  47  59 E6        29.95S
N BAR RANCH    MOCLDY    59  48  67 E14G23    29.98R
CHINOOK          N/A     72  45  37 E12G17    29.93S
FORT BENTON      N/A     70  43  37 E9        29.91S
$$

MTZ017>020-022>027-061-062-230100-
NORTHEAST MONTANA

CITY           SKY/WX    TMP DP  RH WIND       PRES   REMARKS
GLASGOW        CLOUDY    71  40  32 E18       29.96S
JORDAN           N/A     69  42  37 SE18      29.95R
SIDNEY         MOSUNNY   73  30  20 SE16      30.00S
WOLF POINT     PTSUNNY   74  40  29 SE10G20   29.98S
MALTA            N/A     72  45  37 E10       29.92S
PLENTYWOOD       N/A     75  30  19 SE18      30.02F
POPLAR           N/A     73  30  20 E16G23    29.99S
SCOBEY           N/A     73  31  21 E20       30.00
$$

MTZ028>42-056>058-230100-
SOUTHCENTRAL AND SOUTHEAST MONTANA

CITY           SKY/WX    TMP DP  RH WIND       PRES   REMARKS
BAKER          PTSUNNY   66  40  38 SE20G28   30.02S
BILLINGS       PTSUNNY   68  44  42 E15       29.89S THUNDER
LIVINGSTON     CLOUDY    63  44  50 NE15      29.90R
MILES CITY     CLOUDY    69  44  40 SE17G25   29.95S
BIG TIMBER       N/A     55  48  76 W7        29.93R
EKALAKA          N/A     61  41  47 SE14      30.00S
FORSYTH          N/A     66  45  45 SE17      29.93S
LAUREL           N/A     68  45  43 E10       29.89S
ROUNDUP          N/A     67  43  41 E8        29.84R
$$

REGIONAL REPORTS...DAKOTAS

CITY           SKY/WX    TMP DP  RH WIND       PRES   REMARKS
WILLISTON      MOSUNNY   75  33  21 S14G21    30.03S
MINOT          SUNNY     75  32  20 S10G21    30.06F
DICKINSON      SUNNY     69  33  26 S24G30    30.04S
BEACH          FAIR      66  36  32 SE21G28   30.03S
CROSBY         FAIR      73  32  21 SE14      30.05F
WATFORD CITY   FAIR      73  28  19 S17G29    30.02S
BISMARCK       MOSUNNY   73  36  25 SE18      30.07F
GRAND FORKS    MOSUNNY   76  39  26 S7        30.10F
FARGO          SUNNY     74  42  31 S5G17     30.12F
BUFFALO SD       N/A     64  41  42 SE22      29.97F
RAPID CITY     CLOUDY    57  42  57 S16       30.07R
$$

REGIONAL REPORTS...WYOMING/IDAHO/WASHINGTON

CITY           SKY/WX    TMP DP  RH WIND       PRES   REMARKS
GILLETTE       CLOUDY    54  44  69 SE14      30.00S
SHERIDAN       CLOUDY    58  45  62 SE18G30   29.93F
BUFFALO WY     LGT RAIN  52  45  77 S15       30.00R
CODY           CLOUDY    50  46  87 N8        29.94S
YELLOWSTONE LA   N/A     53  36  52 VRB3      29.99R
IDAHO FALLS    CLOUDY    63  44  50 S8        29.86S
SALMON         CLOUDY    64  41  42 E22       29.85R
BOISE          CLOUDY    72  42  34 N5        29.81S
SPOKANE        CLOUDY    71  49  45 SW15      29.81F
$$

REGIONAL REPORTS...ALBERTA

CITY           SKY/WX    TMP DP  RH WIND       PRES   REMARKS
EDMONTON       SUNNY     79  25  13 CALM      29.97S
CALGARY        MOSUNNY   72  28  20 VRB2      30.00R
LETHBRIDGE     MOSUNNY   72  30  21 E5        29.95S
MEDICINE HAT   MOSUNNY   77  27  15 E8G20     29.94R
$$

REGIONAL REPORTS...SASKATCHEWAN

CITY           SKY/WX    TMP DP  RH WIND       PRES   REMARKS
SWIFT CURRENT  SUNNY     73  27  17 SE15G24   30.01S
REGINA         MOSUNNY   75  34  22 S6        30.03F
SASKATOON      MOSUNNY   79  28  15 S8        30.02F
$$


USA.gov is the U.S. government's official web portal to all federal, state and local government web resources and services.